Flag for Germany Weather past 2 weeks in Göttingen, Lower Saxony, Germany

Now
63 °F

Light rain. Cloudy.


Feels Like: 63 °F
Forecast: 51 / 67 °F
Wind: 10 mph from Northwest

Location: Kassel / Calden

Current Time: Sep 1, 2015 at 1:19:54 PM

Latest Report: Sep 1, 2015 at 12:50 PM


Visibility: 4 mi

Pressure: 29.80 "Hg

Humidity: 100%

Dew point: 63 °F

Location of GöttingenLocation

Historic Weather in Göttingen — Graph

°F

Göttingen temperature yesterday

Maximum temperature yesterday: 90 °F (at 4:20 PM)
Minimum temperature yesterday: 63 °F (at 5:50 AM)
Average temperature yesterday: 79 °F

Past Weeks' High & Low Weather Summary

 TemperatureHumidityPressure
High90 °F (Aug 31, 4:20 PM)100% (Aug 17, 12:20 PM)30.30 "Hg (Aug 17, 12:20 PM)
Low48 °F (Aug 19, 5:50 AM)30% (Aug 22, 3:20 PM)29.65 "Hg (Aug 24, 4:50 PM)
Average66 °F70%30.01 "Hg
* Reported Aug 17 12:20 PM — Sep 1 12:20 PM, Göttingen, Weather by CustomWeather, © 2015

Note: Actual official high and low records may vary slightly from our data, if they occured in-between our weather recording intervals... More about our weather records

Advertising

Göttingen weather history for previous 24 hours

 ConditionsComfort  
Time TempWeatherWind HumidityBarometerVisibility
12:20 PM
Tue, Sep 1
63 °FRain. Low clouds.7 mph100%29.83 "Hg4 mi
11:50 AM64 °FOvercast.2 mph83%29.80 "HgN/A
11:20 AM64 °FOvercast.5 mph83%29.80 "HgN/A
10:50 AM64 °FOvercast.5 mph83%29.80 "HgN/A
10:20 AM63 °FLow clouds.8 mph94%29.80 "Hg5 mi
9:50 AM63 °FOvercast.8 mph100%29.80 "Hg4 mi
9:20 AM64 °FLight rain. More clouds than sun.7 mph100%29.83 "Hg3 mi
8:50 AM64 °FLight rain. Overcast.8 mph100%29.83 "Hg4 mi
8:20 AM64 °FPartly sunny.2 mph100%29.80 "Hg6 mi
7:50 AM64 °FPartly sunny.3 mph100%29.80 "HgN/A
7:20 AM63 °FPassing clouds.5 mph100%29.83 "HgN/A
6:50 AM63 °FClear.5 mph100%29.80 "Hg10 mi
11:20 PM
Mon, Aug 31
72 °FClear.5 mph61%29.80 "Hg10 mi
10:50 PM72 °FClear.8 mph61%29.80 "Hg10 mi
10:20 PM73 °FClear.7 mph57%29.80 "Hg10 mi
9:50 PM77 °FClear.7 mph51%29.80 "Hg10 mi
9:20 PM77 °FClear.6 mph51%29.80 "Hg10 mi
8:50 PM79 °FSunny.7 mph48%29.80 "Hg10 mi
8:20 PM79 °FSunny.6 mph48%29.80 "Hg10 mi
7:50 PM81 °FPassing clouds.7 mph48%29.80 "HgN/A
7:20 PM84 °FSunny.9 mph43%29.80 "Hg10 mi
6:50 PM84 °FSunny.13 mph40%29.80 "Hg10 mi
6:20 PM86 °FPassing clouds.13 mph40%29.80 "HgN/A
5:50 PM88 °FSunny.15 mph38%29.83 "Hg10 mi
5:20 PM88 °FPassing clouds.15 mph38%29.83 "HgN/A
4:50 PM88 °FSunny.14 mph40%29.83 "Hg10 mi
4:20 PM90 °FPassing clouds.14 mph36%29.83 "HgN/A
3:50 PM88 °FSunny.13 mph38%29.86 "Hg10 mi
3:20 PM88 °FSunny.15 mph38%29.86 "Hg10 mi
2:50 PM88 °FSunny.15 mph38%29.86 "Hg10 mi
2:20 PM88 °FPassing clouds.13 mph38%29.86 "HgN/A
1:50 PM88 °FPassing clouds.12 mph38%29.89 "HgN/A
1:20 PM86 °FSunny.14 mph46%29.89 "Hg10 mi
Weather by CustomWeather, © 2015

See weather overviewHow to use our weather pages